Content
SEND FEEDBACK

Daily
Averages
Monthly
Summary
United States of America

ALPINE MEADOWS, CALIFORNIA


Home > North America > United States > California
Elevation: 6230 feet     Latitude: 39 12N     Longitude: 120 14W

WEATHER
 
SELECT A DAY
Number of Records: 290,427;   Date Range: 1/1/95 - 12/20/14
 
SHARE

PRINT THIS DATA

[ ← Previous Day ]
WEATHER ALMANAC - AUGUST 25, 2014
[ Next Day → ]
[ °C ]   °F
Weather ElementAverageHighLow
Temperature48.1 °F75.2 °F (12:50 pm)37.4 °F (4:15 am)
Dewpoint39.6 °F51.8 °F (12:15 am)32 °F (10:50 am)
Humidity77.4 %100 % (1:15 am)24 % (3:55 pm)
Barometer30.08 in30.18 in (6:55 pm)30.03 in (8:15 pm)
Wind Speed1.8 mph9.2 mph (5:45 pm)
Weather ElementAverage
Visibility9.8 mi
Wind DirectionENE (63.4 °)

Weather ElementTotal
Precipitation0.12 in
Heating Degree Days8.7 (Base 65)
Growing Degree Days6.3 (Base 50)
Averaged from 50 records on August 25, 2014
WEATHER CONDITIONS BREAKOUT
WIND DIRECTION BREAKOUT
WEATHER BY HOUR - AUGUST 25, 2014
[ °C ]   °F
Local TimeTemperatureDewpointHumidityBarometerVisibilityWind DirectionWind SpeedGust SpeedPrecipitationEventsConditions
12:15 AM46.4 °F37.4 °F71 %30.05 in10.0 miCalmClear
12:35 AM44.6 °F37.4 °F76 %30.05 in10.0 miCalmClear
12:55 AM42.8 °F35.6 °F76 %30.05 in10.0 miSouth (190°)3.5 mphClear
1:15 AM42.8 °F35.6 °F76 %30.04 in10.0 miCalmClear
1:35 AM42.8 °F35.6 °F76 %30.04 in10.0 miCalmClear
1:55 AM41.0 °F35.6 °F81 %30.04 in10.0 miCalmClear
2:15 AM41.0 °F33.8 °F76 %30.04 in10.0 miCalmClear
2:35 AM42.8 °F35.6 °F76 %30.04 in10.0 miCalmClear
2:55 AM41.0 °F35.6 °F81 %30.04 in10.0 miCalmClear
3:15 AM39.2 °F33.8 °F81 %30.03 in10.0 miSSE (160°)4.6 mphClear
3:35 AM41.0 °F33.8 °F76 %30.03 in10.0 miCalmClear
3:55 AM44.6 °F33.8 °F66 %30.03 in10.0 miCalmScattered Clouds
4:15 AM37.4 °F32.0 °F81 %30.03 in10.0 miCalmScattered Clouds
4:35 AM37.4 °F32.0 °F81 %30.03 in10.0 miCalmScattered Clouds
4:55 AM37.4 °F32.0 °F81 %30.03 in10.0 miCalmScattered Clouds
5:15 AM41.0 °F33.8 °F76 %30.03 in10.0 miCalmClear
5:35 AM41.0 °F33.8 °F76 %30.04 in10.0 miCalmClear
5:55 AM41.0 °F33.8 °F76 %30.04 in10.0 miCalmClear
6:15 AM37.4 °F32.0 °F81 %30.05 in10.0 miCalmClear
6:35 AM37.4 °F32.0 °F81 %30.06 in10.0 miCalmClear
6:55 AM41.0 °F33.8 °F76 %30.07 in10.0 miSouth (170°)3.5 mphScattered Clouds
7:45 AM46.4 °F35.6 °F66 %30.07 in10.0 miCalmScattered Clouds
8:50 AM62.6 °F39.2 °F42 %30.05 in10.0 miSouth (170°)5.8 mphScattered Clouds
9:50 AM66.2 °F35.6 °F32 %30.06 in10.0 miWest (260°)8.1 mphMostly Cloudy
10:50 AM66.2 °F37.4 °F35 %30.06 in10.0 miCalmMostly Cloudy
11:45 AM69.8 °F39.2 °F33 %30.06 in10.0 miNW (310°)3.5 mphMostly Cloudy
12:50 PM71.6 °F37.4 °F29 %30.05 in10.0 miWest (260°)9.2 mphMostly Cloudy
1:45 PM75.2 °F35.6 °F24 %30.03 in10.0 miWSW (250°)9.2 mphMostly Cloudy
2:45 PM69.8 °F35.6 °F28 %30.03 in10.0 miWest (260°)5.8 mphMostly Cloudy
3:45 PM66.2 °F37.4 °F35 %30.03 in10.0 miENE (60°)5.8 mphMostly Cloudy
4:50 PM53.6 °F50.0 °F88 %30.08 in10.0 miSSW (210°)3.5 mphRainLight Rain
5:50 PM53.6 °F51.8 °F94 %30.13 in10.0 miSSW (210°)6.9 mphRainLight Rain
6:15 PM51.8 °F48.2 °F88 %30.12 in7.0 miCalm0.04 inRainLight Rain
6:35 PM53.6 °F50.0 °F88 %30.10 in10.0 miENE (70°)4.6 mph0.04 inMostly Cloudy
6:55 PM53.6 °F50.0 °F88 %30.10 in10.0 miCalm0.04 inThunderstormScattered Clouds
7:15 PM51.8 °F50.0 °F94 %30.11 in10.0 miCalmClear
7:35 PM50.0 °F50.0 °F100 %30.11 in10.0 miCalmClear
7:55 PM50.0 °F50.0 °F100 %30.13 in10.0 miCalmClear
8:15 PM48.2 °F48.2 °F100 %30.13 in10.0 miCalmClear
8:35 PM44.6 °F44.6 °F100 %30.14 in10.0 miSSE (160°)4.6 mphClear
8:55 PM44.6 °F44.6 °F100 %30.15 in10.0 miCalmClear
9:15 PM44.6 °F44.6 °F100 %30.16 in10.0 miCalmMostly Cloudy
9:35 PM44.6 °F44.6 °F100 %30.17 in10.0 miSSW (210°)5.8 mphOvercast
9:55 PM44.6 °F44.6 °F100 %30.16 in10.0 miSW (220°)3.5 mphOvercast
10:15 PM44.6 °F44.6 °F100 %30.17 in10.0 miCalmOvercast
10:35 PM42.8 °F42.8 °F100 %30.17 in10.0 miCalmScattered Clouds
10:55 PM44.6 °F42.8 °F93 %30.17 in10.0 miCalmClear
11:15 PM42.8 °F42.8 °F100 %30.17 in10.0 miCalmClear
11:35 PM44.6 °F42.8 °F93 %30.17 in10.0 miCalmClear
11:55 PM41.0 °F41.0 °F100 %30.18 in0.8 miCalmMostly Cloudy
Hourly data recorded from KTRK, located miles away from Alpine Meadows, California







STORIES FROM OUR PARTNERS